Location: Christianberg
(48.9086°N, 14.0209°E)
Time: 19:19:22
(UTC+00:00)

SL-16 R/B - Pass Details

Date: 20 June 2021
Orbit: 842 x 847 km, 71.0° (Epoch: 03 August)

Event Time Altitude Azimuth Distance (km) Brightness Sun altitude
Exits shadow 00:20:14 10° 247° (WSW) 2,457 4.2 -15.8°
Maximum altitude 00:25:18 33° 311° (NW) 1,379 3.5 -15.5°
Drops below altitude 10° 00:30:25 10° 15° (NNE) 2,474 6.0 -15.2°
Sets 00:33:08 0° 25° (NNE) 3,412 7.3 -15.1°
